User: anonymous   Login
Location: Caltech
(34.1382°N, 118.1253°W)
Time: 06:53:11
(UTC-08:00)
Language:

Cosmos 44 Rocket - Orbit

View from above orbital plane
View from above orbital plane
View from above satellite
View from above satellite

Ground track
Ground track

The orbit data is extracted from the following two-line orbital elements,

1 00877U 64053B   17055.51864921 -.00000054  00000-0  13793-4 0  9991
2 00877  65.0767 261.5377 0061290 169.5218 190.7175 14.59281764785070
Epoch (UTC): 24 February 2017 12:26:51
Eccentricity: 0.0061290
inclination: 65.0767°
perigee height: 652 km
apogee height: 739 km
right ascension of ascending node: 261.5377°
argument of perigee: 169.5218°
revolutions per day: 14.59281764
mean anomaly at epoch: 190.7175°
orbit number at epoch: 78507

The dashed part of the orbit path shows where the satellite is in the earth's shadow,  

DLR